CW0230 Weather Reports


Display with metric or nautical units.
time (UTC)temp
F
wind
direction
speed
MPH
gust
MPH
rain 1hr
in
rain 24hr
in
rain mn
in
humidity
%
barometer
mb
20260831212011 60 218 2.0 6.0 0.00 0.01 0.01 78 1020.0
20260831211510 60 210 2.0 6.0 0.00 0.01 0.01 78 1019.9
20260831211011 60 209 1.0 5.0 0.00 0.01 0.01 78 1019.9
20260831210511 60 224 3.0 5.0 0.00 0.01 0.01 78 1019.8
20260831204511 60 279 1.0 5.0 0.00 0.01 0.01 77 1019.8
20260831204011 60 243 1.0 5.0 0.00 0.01 0.01 77 1019.8
20260831203511 60 238 2.0 5.0 0.00 0.01 0.01 77 1019.7
20260831203011 60 224 2.0 5.0 0.00 0.01 0.01 76 1019.7
20260831195010 61 277 1.0 3.0 0.00 0.01 0.01 74 1019.2
20260831194511 61 223 0.0 3.0 0.00 0.01 0.01 74 1019.2
20260831194011 62 223 1.0 3.0 0.00 0.01 0.01 73 1019.2
20260831193511 62 240 0.0 3.0 0.00 0.01 0.01 73 1019.2
20260831192510 62 284 2.0 3.0 0.00 0.01 0.01 72 1019.0
20260831192011 62 253 0.0 3.0 0.00 0.01 0.01 72 1018.8
20260831191511 62 307 1.0 3.0 0.00 0.01 0.01 71 1018.7
20260831191011 63 318 1.0 3.0 0.00 0.01 0.01 70 1018.7
20260831190511 63 311 1.0 3.0 0.00 0.01 0.01 70 1018.6
20260831185511 63 249 1.0 5.0 0.00 0.01 0.01 68 1018.6
20260831184011 64 298 2.0 6.0 0.00 0.01 0.01 66 1018.4
20260831183511 64 280 1.0 6.0 0.00 0.01 0.01 65 1018.3
20260831183011 65 295 2.0 7.0 0.00 0.01 0.01 64 1018.3
20260831182510 65 295 2.0 7.0 0.00 0.01 0.01 64 1018.2
20260831182011 65 239 2.0 7.0 0.00 0.01 0.01 64 1018.2
20260831181511 65 240 3.0 9.0 0.00 0.01 0.01 63 1018.1
20260831174511 66 267 3.0 8.0 0.00 0.02 0.01 62 1017.8
20260831174010 66 267 4.0 12.0 0.00 0.02 0.01 61 1017.8
20260831173511 67 283 6.0 12.0 0.00 0.02 0.01 60 1017.7
20260831172511 68 237 6.0 14.0 0.00 0.02 0.01 60 1017.6
20260831171511 68 232 5.0 13.0 0.00 0.02 0.01 59 1017.5
20260831170511 68 309 5.0 10.0 0.00 0.03 0.01 61 1017.5
20260831165511 68 248 5.0 12.0 0.00 0.03 0.01 62 1017.5
20260831164011 68 222 6.0 12.0 0.00 0.03 0.01 62 1017.3
20260831163511 68 265 3.0 7.0 0.00 0.03 0.01 64 1017.2
20260831161511 68 331 3.0 7.0 0.00 0.03 0.01 67 1017.1
20260831160511 68 343 4.0 9.0 0.00 0.03 0.01 67 1017.0
20260831155511 68 327 5.0 12.0 0.00 0.03 0.01 67 1017.0
20260831155011 68 320 4.0 12.0 0.00 0.03 0.01 67 1016.9
20260831154511 68 318 5.0 13.0 0.00 0.03 0.01 67 1016.9
20260831153511 69 270 5.0 12.0 0.00 0.03 0.01 67 1016.8
20260831153012 69 307 5.0 10.0 0.00 0.03 0.01 65 1016.8
20260831152012 70 232 6.0 12.0 0.00 0.03 0.01 63 1016.6
20260831151511 70 235 6.0 10.0 0.00 0.03 0.01 63 1016.6
20260831151011 70 246 5.0 12.0 0.00 0.03 0.01 63 1016.4
20260831150511 71 243 3.0 12.0 0.00 0.03 0.01 64 1016.4
20260831150011 71 236 6.0 10.0 0.00 0.03 0.01 63 1016.3
20260831145511 70 308 5.0 10.0 0.00 0.03 0.01 63 1016.4
20260831145011 70 232 5.0 12.0 0.00 0.03 0.01 65 1016.3
20260831144011 71 252 4.0 10.0 0.00 0.03 0.01 63 1016.3
20260831143511 71 240 6.0 12.0 0.00 0.03 0.01 62 1016.3
20260831143012 71 270 5.0 12.0 0.00 0.03 0.01 61 1016.2
20260831142011 71 227 3.0 14.0 0.00 0.03 0.01 61 1016.1
20260831140511 72 285 3.0 12.0 0.00 0.03 0.01 59 1016.1
20260831140011 72 219 6.0 14.0 0.00 0.03 0.01 58 1016.0
20260831135511 72 229 4.0 14.0 0.00 0.03 0.01 58 1015.8
20260831133011 74 209 5.0 10.0 0.00 0.03 0.01 62 1015.6
20260831132511 73 257 4.0 13.0 0.00 0.03 0.01 61 1015.5
20260831132011 73 266 6.0 13.0 0.00 0.03 0.01 61 1015.4
20260831130012 72 316 6.0 16.0 0.00 0.03 0.01 63 1015.3
20260831125511 72 327 7.0 16.0 0.00 0.03 0.01 64 1015.2
20260831124011 71 312 5.0 14.0 0.00 0.03 0.01 65 1015.1
20260831122011 72 297 4.0 12.0 0.00 0.03 0.01 65 1014.8
20260831121511 72 280 3.0 13.0 0.00 0.03 0.01 64 1014.7
20260831120012 70 263 5.0 12.0 0.00 0.03 0.01 67 1014.6
20260831115510 71 311 5.0 12.0 0.00 0.03 0.01 68 1014.6
20260831115011 71 274 6.0 17.0 0.00 0.03 0.01 67 1014.4
20260831114511 70 300 6.0 17.0 0.00 0.03 0.01 68 1014.4
20260831113511 70 325 5.0 14.0 0.00 0.03 0.01 69 1014.3
20260831113011 69 237 7.0 14.0 0.00 0.03 0.01 69 1014.2
20260831111510 70 308 3.0 14.0 0.00 0.03 0.01 70 1013.9
20260831105511 70 245 7.0 13.0 0.00 0.03 0.01 70 1013.7
20260831105011 70 241 5.0 12.0 0.00 0.03 0.01 70 1013.6
20260831104510 71 314 6.0 12.0 0.00 0.03 0.01 69 1013.6
20260831103510 70 307 5.0 17.0 0.00 0.03 0.01 70 1013.4
20260831102511 70 288 4.0 14.0 0.00 0.03 0.01 70 1013.3
20260831100511 69 303 3.0 10.0 0.00 0.03 0.01 72 1013.0
20260831100011 69 304 6.0 10.0 0.00 0.03 0.01 71 1013.0
20260831095510 70 320 6.0 10.0 0.00 0.03 0.01 70 1012.8
20260831095011 70 305 3.0 13.0 0.00 0.03 0.01 71 1012.7
20260831090011 68 309 3.0 9.0 0.00 0.03 0.01 76 1012.1
20260831085011 68 284 4.0 12.0 0.01 0.03 0.01 77 1012.0
20260831081511 66 232 6.0 14.0 0.01 0.04 0.01 80 1011.2
20260831081010 65 235 6.0 14.0 0.01 0.04 0.01 81 1011.2
20260831080511 65 296 6.0 20.0 0.01 0.04 0.01 82 1011.1
20260831080012 65 227 7.0 20.0 0.01 0.04 0.01 82 1011.0
20260831075511 64 245 3.0 18.0 0.01 0.04 0.01 83 1010.9
20260831074511 63 247 6.0 15.0 0.00 0.03 0.00 85 1010.7
20260831074010 63 240 7.0 13.0 0.00 0.04 0.00 85 1010.5
20260831073011 62 234 7.0 12.0 0.00 0.05 0.00 86 1010.4
20260831072011 62 243 5.0 10.0 0.00 0.05 0.00 88 1010.4
20260831070511 61 234 3.0 9.0 0.00 0.05 0.00 89 1010.2
20260831065512 60 202 3.0 12.0 0.00 0.05 0.00 89 1009.9
20260831065011 60 221 3.0 12.0 0.00 0.05 0.00 89 1009.8
20260831064511 60 206 5.0 12.0 0.00 0.05 0.00 89 1009.7
20260831061011 59 218 5.0 12.0 0.00 0.05 0.00 89 1009.0
20260831060011 59 219 5.0 12.0 0.00 0.05 0.00 89 1008.8
20260831055011 59 223 3.0 9.0 0.00 0.05 0.00 89 1008.7
20260831054511 59 233 3.0 7.0 0.00 0.05 0.00 89 1008.6
20260831054011 59 210 3.0 9.0 0.00 0.05 0.00 89 1008.5
20260831052511 59 176 3.0 10.0 0.00 0.05 0.00 89 1008.3
20260831051510 59 218 3.0 9.0 0.00 0.05 0.00 89 1008.1
20260831051011 59 207 3.0 9.0 0.00 0.05 0.00 89 1008.0
20260831050011 59 205 4.0 9.0 0.00 0.05 0.00 88 1007.9
20260831045510 59 206 3.0 9.0 0.00 0.05 0.00 89 1007.8
20260831045011 59 197 3.0 9.0 0.00 0.05 0.00 89 1007.7
20260831044511 59 207 5.0 12.0 0.00 0.05 0.00 89 1007.7
20260831044011 59 213 5.0 12.0 0.00 0.05 0.00 89 1007.7
20260831043511 58 197 3.0 7.0 0.00 0.05 0.00 89 1007.7
20260831043010 58 170 3.0 8.0 0.00 0.05 0.00 89 1007.7
20260831042011 58 217 1.0 8.0 0.00 0.05 0.00 89 1007.5
20260831041011 59 205 4.0 10.0 0.00 0.05 0.00 89 1007.4
20260831040511 59 203 5.0 10.0 0.00 0.05 0.00 88 1007.4
20260831040011 59 200 5.0 8.0 0.00 0.05 0.00 88 1007.3
20260831035511 59 221 5.0 8.0 0.00 0.05 0.00 88 1007.4
20260831034511 59 212 3.0 10.0 0.00 0.05 0.00 88 1007.2
20260831031511 59 219 5.0 12.0 0.00 0.05 0.00 88 1007.1
20260831030511 59 209 5.0 12.0 0.00 0.05 0.00 88 1007.1
20260831030011 59 211 4.0 9.0 0.00 0.05 0.00 88 1007.0
20260831025511 59 218 3.0 9.0 0.00 0.05 0.00 88 1007.0
20260831022510 59 191 4.0 12.0 0.00 0.05 0.00 88 1006.6
20260831020011 59 208 5.0 9.0 0.00 0.05 0.00 88 1006.4
20260831015511 59 202 5.0 9.0 0.00 0.05 0.00 88 1006.5
20260831015011 59 222 5.0 9.0 0.00 0.05 0.00 88 1006.4
20260831014511 59 207 3.0 9.0 0.00 0.05 0.00 88 1006.4
20260831013010 59 207 3.0 8.0 0.00 0.05 0.00 88 1006.3
20260831011011 59 237 4.0 9.0 0.00 0.05 0.00 88 1006.3
20260831010511 59 215 5.0 9.0 0.00 0.05 0.00 88 1006.2
20260831005011 59 212 3.0 8.0 0.00 0.05 0.00 88 1006.1
20260831003011 60 216 6.0 12.0 0.00 0.05 0.00 87 1005.9
20260831001011 60 208 6.0 12.0 0.00 0.05 0.00 87 1005.4
20260830235512 60 205 6.0 12.0 0.00 0.05 0.00 87 1005.4
20260830235010 60 197 5.0 12.0 0.00 0.05 0.00 88 1005.4
20260830234511 60 216 6.0 12.0 0.00 0.05 0.00 88 1005.4
20260830233011 61 228 2.0 6.0 0.00 0.05 0.00 89 1005.4
20260830232511 61 226 2.0 7.0 0.00 0.05 0.00 89 1005.4
20260830225511 61 204 4.0 12.0 0.00 0.05 0.05 87 1005.2
20260830224511 62 198 4.0 12.0 0.00 0.05 0.05 87 1005.2
20260830224011 62 202 5.0 12.0 0.00 0.05 0.05 87 1005.1
20260830223511 62 182 4.0 12.0 0.00 0.05 0.05 87 1005.1
20260830222511 62 206 5.0 12.0 0.00 0.05 0.05 86 1005.0
20260830221511 63 196 7.0 16.0 0.00 0.05 0.05 86 1004.9
20260830221011 63 191 7.0 16.0 0.00 0.05 0.05 86 1004.8
20260830220511 63 196 8.0 17.0 0.00 0.05 0.05 86 1004.8
20260830220011 63 207 7.0 17.0 0.00 0.05 0.05 87 1004.8
20260830215511 63 195 6.0 12.0 0.00 0.05 0.05 88 1004.7
20260830215011 63 197 6.0 18.0 0.00 0.05 0.05 88 1004.9
20260830214510 63 201 6.0 20.0 0.00 0.05 0.05 88 1004.8
20260830213011 63 193 5.0 13.0 0.00 0.05 0.05 87 1005.0